[[{"header":{"parameterUnit":"m.s-1","parameterCategory":1,"la1":30.2991,"la2":30.254,"lo1":-89.0895,"lo2":-89.0444,"dy":0.0017,"dx":0.0017,"nx":28,"ny":28,"refTime":"2025-01-05T03:00:00:Z","depth":0,"parameterNumber":2,"parameterNumberName":"U-component_of_WINDS"},"data":[0,0,0,0,0,0,0,0,0,0,0,0,0,0,0,0,0,0,0,0,0,0,0,0,0,0,0,0,0,0,0,0,0,0,0,0,0,0,0,0,0,0,0,0,0,0,0,0,0,0,0,0,0,0,0,0,0,0,5.8117,5.8118,0,5.8195,5.8196,5.8197,5.8137,5.8134,5.8132,5.8129,5.8207,5.8212,5.8216,0,0,0,0,0,0,0,0,0,0,0,0,0,5.7915,5.7919,5.8117,5.8118,5.8119,5.8195,5.8196,5.8197,5.8137,5.8134,5.8131,5.8128,5.8206,5.8211,5.8217,0,0,0,0,0,0,0,0,0,0,0,0,0,5.7999,5.792,5.8116,5.8098,5.8097,5.8195,5.8196,5.8197,5.8138,5.8134,5.813,5.8126,5.8204,5.8211,5.8217,5.8337,0,0,5.8238,5.8241,0,0,0,0,0,0,0,0,5.7994,5.8006,5.81,5.8099,5.8099,5.8152,5.8154,5.8244,5.8139,5.8122,5.8129,5.8124,5.8192,5.82,5.8223,5.834,5.8344,5.8239,5.8243,5.8246,5.8247,0,0,0,0,0,0,0,5.7989,5.8003,5.8148,5.8101,5.8101,5.8086,5.8093,5.8171,5.8178,5.8123,5.8119,5.8129,5.8191,5.8216,5.8224,5.8345,5.8238,5.8244,5.8249,5.8251,5.8568,5.8572,0,0,0,0,0,0,5.7985,5.7998,5.8145,5.815,5.8036,5.8093,5.8101,5.8139,5.8177,5.8179,5.8133,5.8126,5.8207,5.8216,5.8227,5.8371,5.8245,5.8252,5.8256,5.8563,5.8569,5.8573,0,0,0,0,0,0,5.7981,5.7998,5.8142,5.8073,5.809,5.81,5.8143,5.8142,5.8168,5.8184,5.8185,5.8157,5.8204,5.8217,5.8311,5.8373,5.8255,5.8261,5.8558,5.8565,5.8571,5.8659,0,0,0,0,0,0,5.7975,5.7997,5.8042,5.8075,5.8094,5.8225,5.8147,5.8147,5.818,5.8172,5.8207,5.8209,5.8202,5.8301,5.8317,5.838,5.8266,5.8553,5.8561,5.8569,5.8651,5.8668,5.8682,0,0,0,0,0,5.7968,5.8063,5.8045,5.8063,5.8151,5.8228,5.824,5.823,5.8185,5.8231,5.8242,5.8208,5.8363,5.8311,5.8329,5.8394,5.8549,5.8559,5.8568,5.8643,5.8664,5.8682,0,0,0,0,0,0,5.8036,5.8067,5.8047,5.8155,5.819,5.8218,5.8275,5.8252,5.8299,5.829,5.8275,5.8284,5.8383,5.8398,5.8339,5.8513,5.8449,5.8463,5.85,5.852,5.8535,5.853,5.8272,0,0,0,0,0,5.8064,5.8125,5.8148,5.8241,5.826,5.8265,5.8298,5.8288,5.8323,5.8337,5.8355,5.839,5.8446,5.8484,5.8537,5.8653,5.866,5.8707,5.8723,5.8736,5.8748,5.8813,5.8834,5.8606,5.8606,5.8605,0,0,5.8122,5.8146,5.8185,5.8256,5.8281,5.8345,5.8278,5.8347,5.8394,5.8347,5.8437,5.8452,5.849,5.8596,5.8644,5.8612,5.8813,5.8748,5.8758,5.8764,5.8825,5.8846,5.8866,5.8612,5.8611,5.861,0,0,5.826,5.8284,5.8365,5.8393,5.8434,5.8437,5.8457,5.8489,5.8498,5.8588,5.8555,5.8611,5.8709,5.8738,5.8766,5.8919,5.889,5.8936,5.9019,5.9082,5.91,5.9116,5.9172,5.9192,5.8948,5.8949,5.8949,0,5.8326,5.8421,5.841,5.8483,5.8516,5.8478,5.8561,5.8588,5.8644,5.8668,5.8631,5.8755,5.8778,5.8891,5.8929,5.8952,5.8975,5.8932,5.9099,5.9115,5.9129,5.9182,5.9203,5.8954,5.8953,5.8953,5.8952,0,5.8501,5.8568,5.8629,5.8685,5.8725,5.8802,5.8804,5.8845,5.8833,5.884,5.8934,5.8961,5.902,5.9046,5.9033,5.9159,5.9138,5.9101,5.9035,5.9157,5.9206,5.9226,5.8962,5.896,5.8958,5.8957,0,0,5.8682,5.8734,5.8756,5.8783,5.8826,5.8877,5.8954,5.9013,5.905,5.909,5.9154,5.924,5.9207,5.9238,5.9229,5.9284,5.9406,5.9241,5.9241,5.9271,5.9548,5.9576,5.9599,5.9388,5.9392,5.9395,5.9545,0,5.8823,5.8957,5.8951,5.9077,5.9139,5.9106,5.9173,5.9207,5.9217,5.9271,5.9282,5.9343,5.9294,5.9313,5.9367,5.938,5.9461,5.9369,5.9448,5.9451,5.944,5.9625,5.9654,5.9795,5.9564,5.9567,5.957,0,5.9004,5.9053,5.9185,5.9222,5.9248,5.9308,5.9363,5.9416,5.9454,5.9458,5.9495,5.9478,5.9556,5.949,5.9599,5.9536,5.9568,5.958,5.9585,5.9592,5.9518,5.9638,5.9839,5.986,5.96,5.9598,5.9595,0,5.9125,5.9223,5.9316,5.9339,5.9384,5.9427,5.9448,5.9483,5.952,5.9568,5.9592,5.9648,5.9679,5.9723,5.9722,5.9674,5.9833,5.9766,5.9839,5.9839,5.9873,5.9871,6.0083,5.9894,5.9893,5.9893,5.9893,0,5.9283,5.9365,5.9371,5.9428,5.952,5.9513,5.9604,5.962,5.9653,5.9712,5.9687,5.9744,5.9739,5.9796,5.9796,5.9887,5.9901,5.9906,5.9905,5.9909,5.9908,5.9929,5.992,5.9899,5.9897,5.9896,5.9895,0,5.9432,5.9439,5.9538,5.9573,5.9584,5.9651,5.9681,5.9736,5.9744,5.9821,5.9838,5.9852,5.9919,5.9922,5.9999,5.9998,6.011,6.0098,6.0097,6.0095,6.0168,6.0161,6.0401,6.0433,6.0222,6.0224,6.0226,0,5.9533,5.9596,5.9639,5.9678,5.9702,5.9764,5.9802,5.9799,5.9839,5.989,5.9939,6.0004,6.0055,6.0164,6.0181,6.024,6.0229,6.0309,6.0238,6.024,6.0232,6.0228,6.0235,6.0323,6.0325,6.0327,6.0329,0,5.9711,5.9712,5.9768,5.9827,5.9873,5.9919,5.9961,5.9994,5.9996,6.0043,6.0112,6.0152,6.0232,6.0297,6.0355,6.0376,6.0354,6.0352,6.0372,6.0376,6.0374,6.0377,6.0136,6.0346,6.0344,6.0343,6.0342,6.0341,5.9839,5.9895,5.9935,5.9999,6.0031,6.0072,6.0126,6.0142,6.02,6.0265,6.0259,6.0336,6.0376,6.0452,6.0478,6.0539,6.0511,6.054,6.0547,6.0555,6.0563,6.0364,6.0549,6.0549,6.0548,6.0548,6.0547,0,6.0017,6.0042,6.0101,6.0162,6.0213,6.0189,6.0235,6.0279,6.0348,6.0387,6.0439,6.0519,6.0583,6.0606,6.0669,6.0713,6.0704,6.0729,6.0726,6.0732,6.0583,6.056,6.0735,6.0735,6.0735,6.0735,6.0735,6.0735,6.0116,6.0209,6.0215,6.0325,6.0349,6.0425,6.0453,6.0492,6.0523,6.0614,6.0668,6.0683,6.0716,6.0781,6.0839,6.0844,6.0869,6.0899,6.09,6.0761,6.0742,6.0724,6.0702,6.0904,6.0904,6.1043,6.1045,6.1046]},{"header":{"parameterUnit":"m.s-1","parameterCategory":1,"la1":30.2991,"la2":30.254,"lo1":-89.0895,"lo2":-89.0444,"dy":0.0017,"dx":0.0017,"nx":28,"ny":28,"refTime":"2025-01-05T03:00:00:Z","depth":0,"parameterNumber":3,"parameterNumberName":"V-component_of_WINDS"},"data":[0,0,0,0,0,0,0,0,0,0,0,0,0,0,0,0,0,0,0,0,0,0,0,0,0,0,0,0,0,0,0,0,0,0,0,0,0,0,0,0,0,0,0,0,0,0,0,0,0,0,0,0,0,0,0,0,0,0,-7.7698,-7.7699,0,-7.7871,-7.7873,-7.7875,-7.7855,-7.7852,-7.7849,-7.7846,-7.8019,-7.8026,-7.8034,0,0,0,0,0,0,0,0,0,0,0,0,0,-7.7345,-7.7351,-7.7697,-7.77,-7.7702,-7.7871,-7.7873,-7.7876,-7.7855,-7.7852,-7.7848,-7.7845,-7.8017,-7.8026,-7.8034,0,0,0,0,0,0,0,0,0,0,0,0,0,-7.7506,-7.7353,-7.7697,-7.7712,-7.7715,-7.787,-7.7873,-7.7876,-7.7856,-7.7852,-7.7848,-7.7844,-7.8014,-7.8025,-7.8035,-7.8185,0,0,-7.8068,-7.8073,0,0,0,0,0,0,0,0,-7.7497,-7.7519,-7.7708,-7.7711,-7.7715,-7.7837,-7.7812,-7.798,-7.7857,-7.7802,-7.7846,-7.7842,-7.7962,-7.7977,-7.8018,-7.8193,-7.8201,-7.8069,-7.8076,-7.808,-7.8083,0,0,0,0,0,0,0,-7.7486,-7.7511,-7.7766,-7.771,-7.7715,-7.7709,-7.7727,-7.7844,-7.7903,-7.7807,-7.7806,-7.7827,-7.7963,-7.8008,-7.8022,-7.8203,-7.8069,-7.8079,-7.8085,-7.8089,-7.8512,-7.8516,0,0,0,0,0,0,-7.7471,-7.7502,-7.776,-7.7771,-7.7594,-7.7719,-7.7739,-7.7802,-7.7902,-7.7913,-7.783,-7.7825,-7.7991,-7.801,-7.8028,-7.8211,-7.808,-7.809,-7.8097,-7.8507,-7.8513,-7.8518,0,0,0,0,0,0,-7.7464,-7.7495,-7.7753,-7.7637,-7.7669,-7.7729,-7.78,-7.7808,-7.7853,-7.792,-7.793,-7.7865,-7.7989,-7.8013,-7.8147,-7.8217,-7.8095,-7.8105,-7.8501,-7.8509,-7.8515,-7.8578,0,0,0,0,0,0,-7.7454,-7.7492,-7.755,-7.7638,-7.7675,-7.7871,-7.7804,-7.7814,-7.7872,-7.7867,-7.7955,-7.7966,-7.7987,-7.8131,-7.8158,-7.8229,-7.8114,-7.8495,-7.8505,-7.8513,-7.857,-7.8586,-7.86,0,0,0,0,0,-7.7441,-7.756,-7.7553,-7.7585,-7.775,-7.7875,-7.7896,-7.792,-7.7877,-7.7936,-7.798,-7.7963,-7.8205,-7.8145,-7.8175,-7.8251,-7.8491,-7.8502,-7.8512,-7.8563,-7.8583,-7.86,0,0,0,0,0,0,-7.7476,-7.7571,-7.7565,-7.7716,-7.7788,-7.7871,-7.7946,-7.794,-7.8024,-7.8016,-7.804,-7.806,-7.8196,-7.8237,-7.8168,-7.8402,-7.8342,-7.8359,-7.837,-7.839,-7.8405,-7.8392,-7.8123,0,0,0,0,0,-7.7502,-7.7597,-7.7674,-7.7799,-7.7836,-7.7885,-7.794,-7.7953,-7.8027,-7.8057,-7.811,-7.8182,-7.8274,-7.8334,-7.8423,-7.8576,-7.8595,-7.8643,-7.8658,-7.867,-7.8685,-7.877,-7.8792,-7.8553,-7.8553,-7.8552,0,0,-7.7554,-7.7618,-7.7676,-7.7808,-7.7865,-7.7962,-7.791,-7.8014,-7.8086,-7.8072,-7.8203,-7.8245,-7.8326,-7.8471,-7.8537,-7.8509,-7.8755,-7.8684,-7.8693,-7.8701,-7.8783,-7.8805,-7.8825,-7.856,-7.8559,-7.8558,0,0,-7.7701,-7.7759,-7.787,-7.7929,-7.8017,-7.8049,-7.8076,-7.8162,-7.8189,-7.8321,-7.8313,-7.8398,-7.8556,-7.8616,-7.8666,-7.8838,-7.8826,-7.8866,-7.8945,-7.9028,-7.9046,-7.9063,-7.9125,-7.9146,-7.888,-7.888,-7.888,0,-7.7755,-7.7902,-7.7927,-7.8034,-7.8092,-7.8086,-7.8199,-7.8254,-7.8366,-7.8406,-7.8373,-7.8574,-7.8628,-7.8787,-7.8829,-7.887,-7.8901,-7.8855,-7.9042,-7.9059,-7.9075,-7.9134,-7.9157,-7.8884,-7.8884,-7.8883,-7.8883,0,-7.7965,-7.8067,-7.8146,-7.8257,-7.8324,-7.8433,-7.8474,-7.8539,-7.8546,-7.8582,-7.8716,-7.8782,-7.8885,-7.8923,-7.893,-7.9084,-7.9064,-7.9037,-7.8977,-7.9102,-7.9158,-7.918,-7.8891,-7.8889,-7.8888,-7.8887,0,0,-7.8136,-7.8262,-7.829,-7.8341,-7.8439,-7.8518,-7.8626,-7.8729,-7.8784,-7.8862,-7.8953,-7.9089,-7.9065,-7.9123,-7.9136,-7.9209,-7.9341,-7.9173,-7.9175,-7.9202,-7.9515,-7.9535,-7.9561,-7.9334,-7.9339,-7.9342,-7.9508,0,-7.8292,-7.8487,-7.8514,-7.8685,-7.878,-7.8777,-7.8872,-7.8941,-7.8978,-7.9063,-7.9102,-7.9198,-7.9159,-7.9194,-7.9266,-7.931,-7.9404,-7.9298,-7.9419,-7.9423,-7.9399,-7.959,-7.9611,-7.9765,-7.953,-7.9534,-7.9537,0,-7.85,-7.8586,-7.8768,-7.8854,-7.8895,-7.898,-7.9077,-7.9159,-7.9238,-7.9259,-7.9325,-7.933,-7.9442,-7.9379,-7.9533,-7.9461,-7.9512,-7.9541,-7.9548,-7.9559,-7.9487,-7.9607,-7.9814,-7.9838,-7.9571,-7.9569,-7.9566,0,-7.8608,-7.8769,-7.8899,-7.8942,-7.9046,-7.9106,-7.9152,-7.9227,-7.9288,-7.9372,-7.9411,-7.9506,-7.9558,-7.9632,-7.9663,-7.9613,-7.9816,-7.9754,-7.9836,-7.9836,-7.9878,-7.9875,-8.0097,-7.9912,-7.9911,-7.9911,-7.991,0,-7.878,-7.8891,-7.8949,-7.9029,-7.9153,-7.9183,-7.9305,-7.9349,-7.9416,-7.9504,-7.9506,-7.9588,-7.9624,-7.9711,-7.9736,-7.9861,-7.9884,-7.9904,-7.9909,-7.9904,-7.9902,-7.9937,-7.9927,-7.9917,-7.9916,-7.9914,-7.9913,0,-7.892,-7.8964,-7.9105,-7.9193,-7.9218,-7.9306,-7.938,-7.9458,-7.9494,-7.9605,-7.9633,-7.9689,-7.9793,-7.9831,-7.9956,-7.9973,-8.0117,-8.0113,-8.0091,-8.0092,-8.0172,-8.0164,-8.0425,-8.046,-8.0251,-8.0253,-8.0255,0,-7.9027,-7.9113,-7.9211,-7.9271,-7.9319,-7.9415,-7.9478,-7.951,-7.9575,-7.9673,-7.9738,-7.9842,-7.9926,-8.0091,-8.0143,-8.0239,-8.0237,-8.0322,-8.0251,-8.0244,-8.0239,-8.0234,-8.0243,-8.0335,-8.0337,-8.0339,-8.034,0,-7.9212,-7.923,-7.932,-7.942,-7.9494,-7.9573,-7.965,-7.9698,-7.9743,-7.9815,-7.9922,-7.9988,-8.0117,-8.0219,-8.0319,-8.0364,-8.036,-8.0362,-8.0386,-8.0382,-8.0365,-8.0376,-8.0127,-8.0356,-8.0354,-8.0353,-8.0352,-8.0352,-7.9339,-7.9416,-7.9498,-7.9599,-7.9661,-7.9733,-7.981,-7.9857,-7.9947,-8.0056,-8.007,-8.0185,-8.0263,-8.0396,-8.0446,-8.0536,-8.0513,-8.0547,-8.0556,-8.0564,-8.057,-8.0352,-8.0554,-8.0553,-8.0553,-8.0553,-8.0552,0,-7.9525,-7.9578,-7.9671,-7.9779,-7.9859,-7.985,-7.9935,-8.0001,-8.0103,-8.0177,-8.0261,-8.0384,-8.0484,-8.0545,-8.0645,-8.0705,-8.0706,-8.073,-8.0726,-8.0737,-8.0585,-8.0554,-8.0728,-8.0728,-8.0728,-8.0728,-8.0728,-8.0728,-7.9631,-7.9761,-7.9788,-7.9949,-8.0,-8.0115,-8.0164,-8.023,-8.029,-8.0428,-8.0512,-8.0551,-8.062,-8.0726,-8.0817,-8.0832,-8.0869,-8.0896,-8.0909,-8.0765,-8.0747,-8.073,-8.0701,-8.0903,-8.0904,-8.1053,-8.1055,-8.1056]}]]